Powrót do katalogu

DELTA 1 DEB

AktywnySSO
NORAD 21387·DEBRIS·🇺🇸 United States

Wystrzelony Jun 12, 1975 z Vandenberg Space Force Base

Loading…

Następne Przeloty (najbliższe 24 godziny)

TLE

ŚwieżeSource: Space-Track

Epoka: Sep 14, 2026, 07:10 UTC

1 21387U 75052DH  26257.29862938  .00000167  00000-0  34391-3 0  9996
2 21387  99.4892 183.1563 0048431  40.5469 110.8875 13.46401683731691

Śledź DELTA 1 DEB w czasie rzeczywistym z AllMySat

Download on the App Store